Content
SEND FEEDBACK

Daily
Averages
Monthly
Summary
United States of America

STATEN ISLAND, NEW YORK


Home > North America > United States > New York
Elevation: 152 feet     Latitude: 40 35N     Longitude: 074 09W

WEATHER
 
SELECT A DAY
Number of Records: 192,328;   Date Range: 1/1/95 - 10/19/14
 
SHARE

PRINT THIS DATA

[ ← Previous Day ]
WEATHER ALMANAC - JANUARY 30, 2013
[ Next Day → ]
[ °C ]   °F
Weather ElementAverageHighLow
Temperature49.3 °F64.4 °F (1:51 pm)39.2 °F (4:43 am)
Dewpoint46.9 °F57.2 °F (1:51 pm)39.2 °F (2:58 am)
Humidity91.9 %100 % (3:51 am)77 % (1:51 pm)
Barometer29.77 in30.05 in (12:51 am)29.36 in (11:51 pm)
Wind Speed5.5 mph21.9 mph (11:51 pm)
Wind Gust33.4 mph (11:51 pm)
Weather ElementAverage
Visibility4 mi
Wind DirectionENE (70.3 °)

Weather ElementTotal
Precipitation0.03 in
Heating Degree Days13.2 (Base 65)
Growing Degree Days1.8 (Base 50)
Averaged from 40 records on January 30, 2013
WEATHER CONDITIONS BREAKOUT
WIND DIRECTION BREAKOUT
WEATHER BY HOUR - JANUARY 30, 2013
[ °C ]   °F
Local TimeTemperatureDewpointHumidityBarometerVisibilityWind DirectionWind SpeedGust SpeedPrecipitationEventsConditions
12:51 AM41.0 °F39.9 °F96 %30.05 in2.5 miNNE (20°)6.9 mphOvercast
1:51 AM41.0 °F39.9 °F96 %30.02 in2.5 miNNE (30°)6.9 mphOvercast
2:51 AM41.0 °F39.9 °F96 %30.00 in2.5 miNNE (20°)4.6 mphOvercast
2:58 AM41.0 °F39.2 °F93 %30.00 in1.5 miNorth (10°)4.6 mphOvercast
3:15 AM41.0 °F39.2 °F93 %29.98 in0.5 miNNE (20°)4.6 mphOvercast
3:51 AM39.9 °F39.9 °F100 %29.96 in0.2 miNNE (20°)6.9 mphFogFog
4:43 AM39.2 °F39.2 °F100 %29.94 in0.2 miNNE (20°)6.9 mphFogFog
4:51 AM39.9 °F39.9 °F100 %29.94 in0.2 miNNE (20°)5.8 mphFogFog
5:51 AM39.9 °F39.9 °F100 %29.93 in0.2 miNNE (20°)4.6 mphFogFog
6:51 AM39.9 °F39.9 °F100 %29.90 in0.2 miNorth (350°)3.5 mphFogFog
7:16 AM41.0 °F41.0 °F100 %29.89 in0.1 miCalmFogFog
7:51 AM42.1 °F42.1 °F100 %29.88 in0.1 miCalmFogFog
7:54 AM42.8 °F42.8 °F100 %29.88 in0.1 miCalmFogFog
8:27 AM44.6 °F44.6 °F100 %29.87 in0.2 miCalmFogFog
8:42 AM44.6 °F44.6 °F100 %29.86 in0.2 miNE (50°)3.5 mphFogFog
8:51 AM44.1 °F44.1 °F100 %29.86 in0.2 miNNE (30°)4.6 mphOvercast
9:34 AM44.6 °F44.6 °F100 %29.84 in0.2 miNE (50°)6.9 mphFogFog
9:51 AM45.0 °F45.0 °F100 %29.83 in0.2 miNE (40°)3.5 mphOvercast
10:00 AM44.6 °F44.6 °F100 %29.83 in0.2 miNE (50°)3.5 mphOvercast
10:19 AM46.4 °F46.4 °F100 %29.82 in0.5 miNNE (30°)5.8 mphOvercast
10:32 AM48.2 °F46.4 °F93 %29.81 in0.5 miENE (60°)3.5 mphOvercast
10:48 AM50.0 °F46.4 °F87 %29.81 in1.0 miCalmMostly Cloudy
10:51 AM50.0 °F46.9 °F89 %29.80 in1.0 miEast (80°)3.5 mphMostly Cloudy
11:08 AM50.0 °F46.4 °F87 %29.79 in2.0 miNE (40°)3.5 mphOvercast
11:51 AM52.0 °F48.0 °F86 %29.75 in3.0 miEast (90°)5.8 mphOvercast
12:51 PM55.0 °F50.0 °F83 %29.70 in3.0 miENE (70°)3.5 mphHaze
1:51 PM64.4 °F57.2 °F77 %29.65 in10.0 miSouth (180°)10.4 mphOvercast
2:14 PM64.4 °F57.2 °F77 %29.64 in10.0 miSouth (180°)12.7 mph18.4 mphOvercast
2:51 PM57.9 °F52.0 °F81 %29.62 in8.0 miEast (90°)5.8 mph17.3 mph0.01 inOvercast
3:51 PM55.9 °F51.1 °F84 %29.62 in10.0 miEast (100°)8.1 mphOvercast
4:51 PM59.0 °F53.6 °F82 %29.60 in10.0 miSE (130°)9.2 mphOvercast
5:17 PM57.2 °F51.8 °F82 %29.58 in10.0 miSE (130°)8.1 mphOvercast
5:51 PM59.0 °F53.1 °F81 %29.58 in10.0 miSSE (150°)6.9 mphOvercast
6:12 PM60.8 °F53.6 °F77 %29.59 in10.0 miSSE (160°)6.9 mph0.00 inRainLight Rain
6:51 PM55.9 °F54.0 °F93 %29.60 in8.0 miCalm0.02 inRainLight Rain
7:51 PM52.0 °F50.0 °F93 %29.57 in9.0 miNE (50°)3.5 mph0.00 inRainLight Rain
8:51 PM52.0 °F51.1 °F97 %29.52 in10.0 miCalm0.00 inOvercast
9:51 PM59.0 °F55.0 °F87 %29.46 in10.0 miSSE (160°)6.9 mphOvercast
10:51 PM62.1 °F57.0 °F84 %29.41 in10.0 miSouth (180°)15.0 mphOvercast
11:51 PM62.6 °F57.2 °F82 %29.36 in10.0 miSouth (180°)21.9 mph33.4 mphOvercast
Hourly data recorded from KEWR, located miles away from Staten Island, New York







STORIES FROM OUR PARTNERS